Rockwall, TX

12:25 PM CDT on September 19, 2017 (GMT -0500)
Rockwall

Weather History for KF46 - November, 2012

Change the Weather History Date:

Sunday, November 18, 2012

  Actual Average (KDFW) Record (KDFW)
Temperature  
Mean Temperature 55 °F -  
Max Temperature 68 °F 63 °F 83 °F (1973)
Min Temperature 42 °F 45 °F 20 °F (1903)
Degree Days  
Heating Degree Days 10    
Growing Degree Days 5 (Base 50)    
Moisture  
Dew Point 35 °F    
Average Humidity 49    
Maximum Humidity 72    
Minimum Humidity 26    
Precipitation  
Precipitation 0.00 in - - ()
Sea Level Pressure  
Sea Level Pressure 30.25 in    
Wind  
Wind Speed 6 mph ()    
Max Wind Speed 13 mph    
Max Gust Speed 18 mph    
Visibility 10.0 miles    
Events      
Averages and records for this station are not official NWS values.
T = Trace of Precipitation, MM = Missing Value Source: Averaged Metar Reports

Daily Weather History Graph

Daily Weather History Graph

Search for Another Location

Airport or City:

Trip Planner

Search our weather history database for the weather conditions in past years. The results will help you decide how hot, cold, wet, or windy it might be!

Date:

Astronomy

Nov. 18, 2012 Rise Set
Actual Time 6:59 AM CST 5:22 PM CST
Civil Twilight 6:33 AM CST 5:48 PM CST
Nautical Twilight 6:03 AM CST 6:18 PM CST
Astronomical Twilight 5:33 AM CST 6:48 PM CST
Moon 11:30 AM CST (11/18) 10:38 PM CST (11/18)
Length of Visible Light 11h 15m
Length of Day
10h 23m
Waxing Crescent, 30% of the Moon is Illuminated
Nov 18
Waxing Crescent
Nov 20
First Quarter
Nov 28
Full
Dec 6
Last Quarter
Dec 13
New

Hourly Weather History & Observations

Time (CST) Temp. Windchill Dew Point Humidity Pressure Visibility Wind Dir Wind Speed Gust Speed Precip Events Conditions
12:15 AM 49.1 °F - 33.1 °F 54% 30.29 in 10.0 mi SE 5.8 mph - N/A   Clear
12:35 AM 48.2 °F - 33.1 °F 56% 30.29 in 10.0 mi SE 5.8 mph - N/A   Clear
12:55 AM 48.2 °F - 33.1 °F 56% 30.29 in 10.0 mi SE 8.1 mph - N/A   Clear
1:15 AM 47.7 °F - 33.3 °F 57% 30.28 in 10.0 mi SE 8.1 mph - N/A   Clear
1:35 AM 45.9 °F 42.9 °F 34.0 °F 63% 30.29 in 10.0 mi ESE 5.8 mph - N/A   Clear
1:55 AM 44.2 °F 42.7 °F 35.2 °F 71% 30.29 in 10.0 mi ESE 3.5 mph - N/A   Clear
2:15 AM 43.7 °F 40.3 °F 33.3 °F 67% 30.29 in 10.0 mi ESE 5.8 mph - N/A   Clear
2:35 AM 44.4 °F 41.2 °F 33.6 °F 66% 30.28 in 10.0 mi ESE 5.8 mph - N/A   Clear
2:55 AM 46.6 °F - 34.2 °F 62% 30.29 in 10.0 mi SE 5.8 mph - N/A   Clear
3:15 AM 45.9 °F 42.9 °F 34.2 °F 64% 30.28 in 10.0 mi SE 5.8 mph - N/A   Clear
3:35 AM 46.6 °F - 34.7 °F 63% 30.27 in 10.0 mi SE 8.1 mph - N/A   Clear
3:55 AM 46.8 °F - 34.7 °F 63% 30.27 in 10.0 mi SE 6.9 mph - N/A   Clear
4:15 AM 46.2 °F 44.1 °F 34.5 °F 64% 30.27 in 10.0 mi SE 4.6 mph - N/A   Clear
4:35 AM 44.6 °F 42.2 °F 34.3 °F 67% 30.27 in 10.0 mi SE 4.6 mph - N/A   Clear
4:55 AM 43.9 °F 41.3 °F 34.5 °F 70% 30.27 in 10.0 mi SE 4.6 mph - N/A   Clear
5:15 AM 43.3 °F 39.9 °F 34.7 °F 72% 30.26 in 10.0 mi ESE 5.8 mph - N/A   Clear
5:35 AM 43.9 °F 41.3 °F 34.3 °F 69% 30.27 in 10.0 mi ESE 4.6 mph - N/A   Clear
5:55 AM 43.0 °F 40.3 °F 34.0 °F 71% 30.26 in 10.0 mi ESE 4.6 mph - N/A   Clear
6:15 AM 42.1 °F 38.4 °F 33.8 °F 72% 30.27 in 10.0 mi ESE 5.8 mph - N/A   Clear
6:35 AM 43.0 °F 40.3 °F 33.8 °F 70% 30.28 in 10.0 mi SSE 4.6 mph - N/A   Clear
6:55 AM 42.8 °F 40.1 °F 33.8 °F 70% 30.29 in 10.0 mi SSE 4.6 mph - N/A   Clear
7:15 AM 42.8 °F 41.1 °F 33.8 °F 70% 30.29 in 10.0 mi SSE 3.5 mph - N/A   Clear
7:35 AM 43.9 °F 41.3 °F 34.3 °F 69% 30.29 in 10.0 mi SSE 4.6 mph - N/A   Clear
7:55 AM 45.7 °F 43.4 °F 34.9 °F 66% 30.29 in 10.0 mi SE 4.6 mph - N/A   Clear
8:15 AM 49.3 °F - 35.2 °F 58% 30.29 in 10.0 mi SSE 5.8 mph - N/A   Clear
8:35 AM 50.9 °F - 35.1 °F 55% 30.29 in 10.0 mi SSE 6.9 mph - N/A   Clear
8:55 AM 53.1 °F - 35.6 °F 52% 30.30 in 10.0 mi South 8.1 mph - N/A   Clear
9:15 AM 54.9 °F - 36.0 °F 49% 30.30 in 10.0 mi South 9.2 mph 16.1 mph N/A   Clear
9:35 AM 56.3 °F - 36.1 °F 47% 30.31 in 10.0 mi South 10.4 mph 16.1 mph N/A   Clear
9:55 AM 58.3 °F - 36.1 °F 44% 30.31 in 10.0 mi South 9.2 mph 17.3 mph N/A   Clear
10:15 AM 58.8 °F - 36.5 °F 43% 30.31 in 10.0 mi SSW 11.5 mph 16.1 mph N/A   Clear
10:35 AM 59.7 °F - 36.9 °F 43% 30.30 in 10.0 mi South 10.4 mph - N/A   Clear
10:55 AM 60.4 °F - 36.9 °F 42% 30.31 in 10.0 mi SSW 10.4 mph - N/A   Clear
11:15 AM 63.9 °F - 37.4 °F 38% 30.29 in 10.0 mi South 8.1 mph 17.3 mph N/A   Clear
11:35 AM 62.6 °F - 36.7 °F 38% 30.29 in 10.0 mi South 10.4 mph - N/A   Clear
11:55 AM 62.8 °F - 37.2 °F 39% 30.28 in 10.0 mi South 6.9 mph - N/A   Scattered Clouds
12:15 PM 62.6 °F - 36.9 °F 38% 30.27 in 10.0 mi South 10.4 mph - N/A   Scattered Clouds
12:35 PM 62.6 °F - 37.4 °F 39% 30.26 in 10.0 mi South 9.2 mph - N/A   Clear
12:55 PM 62.6 °F - 37.8 °F 40% 30.24 in 10.0 mi South 12.7 mph - N/A   Scattered Clouds
1:15 PM 64.2 °F - 38.7 °F 39% 30.23 in 10.0 mi SSE 6.9 mph - N/A   Clear
1:55 PM 66.2 °F - 38.1 °F 36% 30.21 in 10.0 mi South 9.2 mph 16.1 mph N/A   Scattered Clouds
2:15 PM 66.9 °F - 36.0 °F 32% 30.20 in 10.0 mi SSE 10.4 mph 18.4 mph N/A   Clear
2:35 PM 68.5 °F - 36.9 °F 31% 30.19 in 10.0 mi SE 11.5 mph - N/A   Clear
2:55 PM 68.2 °F - 34.9 °F 29% 30.19 in 10.0 mi SSE 11.5 mph 16.1 mph N/A   Clear
3:15 PM 68.9 °F - 32.5 °F 26% 30.19 in 10.0 mi SSE 11.5 mph 17.3 mph N/A   Clear
3:35 PM 66.2 °F - 31.6 °F 28% 30.19 in 10.0 mi SSE 10.4 mph - N/A   Clear
3:55 PM 66.0 °F - 32.4 °F 29% 30.20 in 10.0 mi South 12.7 mph 18.4 mph N/A   Clear
4:15 PM 66.0 °F - 33.8 °F 30% 30.20 in 10.0 mi South 8.1 mph - N/A   Clear
4:35 PM 65.8 °F - 34.2 °F 31% 30.20 in 10.0 mi South 9.2 mph - N/A   Clear
4:55 PM 64.6 °F - 34.3 °F 32% 30.20 in 10.0 mi South 5.8 mph - N/A   Clear
5:15 PM 62.6 °F - 34.2 °F 35% 30.20 in 10.0 mi SSE 4.6 mph - N/A   Clear
5:35 PM 61.3 °F - 34.2 °F 36% 30.20 in 10.0 mi SSE 4.6 mph - N/A   Clear
5:55 PM 59.9 °F - 34.3 °F 38% 30.19 in 10.0 mi SSE 5.8 mph - N/A   Clear
6:15 PM 60.6 °F - 34.7 °F 38% 30.21 in 10.0 mi SSE 6.9 mph - N/A   Clear
6:35 PM 60.4 °F - 34.7 °F 38% 30.21 in 10.0 mi SSE 5.8 mph - N/A   Clear
6:55 PM 59.0 °F - 35.1 °F 41% 30.21 in 10.0 mi SE 5.8 mph - N/A   Clear
7:15 PM 59.0 °F - 35.2 °F 41% 30.22 in 10.0 mi SSE 6.9 mph - N/A   Clear
7:35 PM 58.8 °F - 35.6 °F 42% 30.22 in 10.0 mi SSE 5.8 mph - N/A   Clear
7:55 PM 59.0 °F - 35.8 °F 42% 30.22 in 10.0 mi SSE 5.8 mph - N/A   Clear
8:15 PM 58.6 °F - 35.8 °F 42% 30.22 in 10.0 mi SE 4.6 mph - N/A   Clear
8:35 PM 57.7 °F - 36.0 °F 44% 30.22 in 10.0 mi SE 4.6 mph - N/A   Clear
8:55 PM 57.2 °F - 36.1 °F 45% 30.22 in 10.0 mi SE 4.6 mph - N/A   Clear
9:15 PM 57.7 °F - 36.5 °F 45% 30.22 in 10.0 mi SSE 5.8 mph - N/A   Scattered Clouds
9:35 PM 58.1 °F - 36.0 °F 44% 30.22 in 10.0 mi SE 6.9 mph - N/A   Clear
9:55 PM 57.2 °F - 36.1 °F 45% 30.21 in 10.0 mi SE 5.8 mph - N/A   Clear
10:15 PM 57.2 °F - 36.5 °F 46% 30.21 in 10.0 mi SSE 6.9 mph - N/A   Clear
10:35 PM 57.6 °F - 36.5 °F 45% 30.21 in 10.0 mi SSE 5.8 mph - N/A   Clear
10:55 PM 58.1 °F - 36.7 °F 45% 30.21 in 10.0 mi SSE 6.9 mph - N/A   Clear
11:15 PM 58.3 °F - 37.0 °F 45% 30.21 in 10.0 mi SSE 6.9 mph - N/A   Clear
11:55 PM 57.7 °F - 37.2 °F 46% 30.20 in 10.0 mi SE 6.9 mph - N/A   Scattered Clouds